FW1389 Weather Reports


Display with metric or nautical units.
time (UTC)temp
F
wind
direction
speed
MPH
gust
MPH
rain 1hr
in
rain 24hr
in
rain mn
in
humidity
%
barometer
mb
20260507113035 59 13 2.0 6.0 0.00 0.00 0.00 84 1010.2
20260507111534 59 5 2.0 5.0 0.00 0.00 0.00 84 1010.0
20260507110032 59 49 2.0 4.0 0.00 0.00 0.00 84 1009.9
20260507104530 58 49 0.0 3.0 0.00 0.00 0.00 83 1010.0
20260507103029 58 50 0.0 1.0 0.00 0.00 0.00 82 1009.9
20260507101527 58 49 1.0 3.0 0.00 0.00 0.00 83 1009.8
20260507100034 58 50 0.0 0.0 0.00 0.00 0.00 83 1009.8
20260507094521 57 49 0.0 4.0 0.00 0.00 0.00 84 1009.8
20260507093019 57 55 0.0 0.0 0.00 0.00 0.00 86 1010.0
20260507091522 56 55 0.0 2.0 0.00 0.00 0.00 87 1010.1
20260507090015 56 49 0.0 1.0 0.00 0.00 0.00 88 1010.2
20260507084515 56 51 0.0 3.0 0.00 0.00 0.00 89 1010.4
20260507083013 55 54 0.0 3.0 0.00 0.00 0.00 90 1010.3
20260507081512 54 82 0.0 1.0 0.00 0.00 0.00 92 1010.4
20260507080010 53 82 0.0 2.0 0.00 0.00 0.00 92 1010.5
20260507074509 53 82 0.0 2.0 0.00 0.00 0.00 93 1010.6
20260507073009 53 82 0.0 1.0 0.00 0.00 0.00 93 1010.6
20260507071511 52 82 0.0 2.0 0.00 0.00 0.00 94 1010.6
20260507070010 52 82 0.0 0.0 0.00 0.01 0.00 94 1010.8
20260507064505 52 82 0.0 0.0 0.00 0.01 0.00 94 1010.8
20260507063004 51 82 0.0 0.0 0.00 0.01 0.00 94 1010.8
20260507061504 51 82 0.0 0.0 0.00 0.01 0.00 95 1010.8
20260507060003 51 82 0.0 0.0 0.00 0.06 0.00 95 1010.9
20260507054501 51 82 0.0 0.0 0.00 0.06 0.00 94 1010.9
20260507053110 51 82 0.0 0.0 0.00 0.06 0.00 94 1010.8
20260507051608 51 82 0.0 0.0 0.00 0.06 0.00 94 1010.8
20260507050058 51 82 0.0 0.0 0.00 0.06 0.00 94 1010.8
20260507044559 51 82 0.0 0.0 0.00 0.07 0.00 94 1011.0
20260507043057 51 82 0.0 0.0 0.00 0.07 0.00 94 1011.1
20260507041554 51 82 0.0 0.0 0.00 0.07 0.00 94 1011.4
20260507040053 51 82 0.0 0.0 0.00 0.07 0.00 94 1011.5
20260507034552 51 82 0.0 0.0 0.00 0.07 0.00 94 1011.5
20260507033052 51 82 0.0 0.0 0.00 0.07 0.00 94 1011.5
20260507031551 51 82 0.0 0.0 0.00 0.07 0.00 94 1011.5
20260507030051 51 82 0.0 0.0 0.00 0.07 0.00 93 1011.5
20260507024549 51 82 0.0 0.0 0.00 0.07 0.00 93 1011.5
20260507023047 52 82 0.0 0.0 0.00 0.07 0.00 93 1011.7
20260507021545 52 82 0.0 0.0 0.00 0.07 0.00 92 1011.7
20260507020100 53 82 0.0 0.0 0.00 0.07 0.00 92 1011.8
20260507014642 53 82 0.0 0.0 0.00 0.07 0.00 92 1011.8
20260507013041 53 82 0.0 0.0 0.00 0.07 0.00 92 1011.9
20260507011540 53 82 0.0 0.0 0.00 0.07 0.00 91 1012.1
20260507010055 53 82 0.0 0.0 0.00 0.07 0.00 91 1012.2
20260507004536 54 82 0.0 0.0 0.00 0.07 0.00 91 1012.3
20260507003034 54 82 0.0 1.0 0.00 0.07 0.00 90 1012.3
20260507001533 54 82 0.0 1.0 0.00 0.07 0.00 90 1012.5
20260507000031 54 82 0.0 0.0 0.00 0.07 0.00 89 1012.5
20260506234531 54 82 0.0 0.0 0.00 0.07 0.00 89 1012.6
20260506233028 54 82 0.0 0.0 0.00 0.07 0.00 89 1012.6
20260506231526 55 82 0.0 1.0 0.00 0.07 0.00 89 1012.8
20260506230028 55 82 0.0 1.0 0.00 0.07 0.00 89 1012.7
20260506224523 55 82 0.0 1.0 0.00 0.07 0.00 88 1012.9
20260506223021 55 82 0.0 1.0 0.00 0.07 0.00 88 1013.1
20260506221519 55 82 0.0 0.0 0.00 0.07 0.00 88 1013.2
20260506220133 55 82 0.0 1.0 0.00 0.07 0.00 88 1013.5
20260506214538 55 80 0.0 1.0 0.00 0.07 0.07 88 1013.5
20260506213038 55 80 0.0 2.0 0.00 0.07 0.07 88 1013.5
20260506211536 55 80 0.0 2.0 0.00 0.07 0.07 88 1013.6
20260506210035 55 79 0.0 1.0 0.00 0.07 0.07 87 1013.6
20260506204536 55 72 0.0 2.0 0.00 0.07 0.07 86 1013.5
20260506203033 56 73 0.0 1.0 0.00 0.07 0.07 86 1013.4
20260506201538 56 73 0.0 2.0 0.00 0.07 0.07 84 1013.2
20260506200031 56 72 0.0 1.0 0.00 0.07 0.07 83 1013.2
20260506194531 56 72 0.0 3.0 0.00 0.07 0.07 82 1013.3
20260506193031 57 69 0.0 1.0 0.00 0.07 0.07 83 1013.5
20260506191530 57 67 1.0 4.0 0.00 0.07 0.07 83 1013.5
20260506190031 57 85 0.0 1.0 0.00 0.07 0.07 83 1013.4
20260506184532 58 79 1.0 3.0 0.00 0.07 0.07 83 1013.3
20260506183026 58 78 0.0 4.0 0.00 0.07 0.07 82 1013.4
20260506181526 58 78 1.0 4.0 0.00 0.07 0.07 80 1013.5
20260506180031 59 85 1.0 3.0 0.00 0.07 0.07 79 1013.6
20260506174528 59 174 0.0 3.0 0.00 0.07 0.07 80 1013.6
20260506173024 57 42 0.0 5.0 0.00 0.07 0.07 83 1013.6
20260506171534 57 42 1.0 5.0 0.00 0.07 0.07 83 1013.7
20260506170020 58 38 2.0 6.0 0.00 0.07 0.07 82 1013.7
20260506164523 58 38 1.0 4.0 0.00 0.07 0.07 80 1013.9
20260506163019 58 38 0.0 3.0 0.00 0.07 0.07 78 1013.8
20260506161518 58 37 2.0 6.0 0.00 0.07 0.07 79 1013.8
20260506160020 57 355 1.0 8.0 0.00 0.07 0.07 80 1013.8
20260506154519 58 13 2.0 4.0 0.00 0.07 0.07 82 1013.9
20260506153015 58 344 3.0 8.0 0.00 0.07 0.07 82 1013.9
20260506151521 58 44 2.0 6.0 0.00 0.07 0.07 77 1014.0
20260506150013 59 57 2.0 5.0 0.00 0.07 0.07 76 1014.2
20260506144511 60 24 2.0 6.0 0.00 0.07 0.07 77 1014.2
20260506143011 59 22 2.0 6.0 0.00 0.07 0.07 78 1014.4
20260506141510 59 40 2.0 6.0 0.00 0.07 0.07 76 1014.3
20260506140017 59 33 3.0 5.0 0.00 0.07 0.07 77 1014.7
20260506134510 59 343 2.0 7.0 0.00 0.07 0.07 78 1014.6
20260506133012 60 25 2.0 5.0 0.00 0.07 0.07 74 1014.8
20260506131507 60 19 0.0 4.0 0.00 0.07 0.07 77 1014.8
20260506130004 59 17 0.0 2.0 0.00 0.07 0.07 79 1014.9
20260506124505 59 24 1.0 4.0 0.00 0.07 0.07 79 1014.9
20260506123001 59 18 1.0 3.0 0.00 0.07 0.07 78 1015.1
20260506121601 59 15 1.0 4.0 0.00 0.07 0.07 78 1015.3
20260506114556 58 22 0.0 4.0 0.00 0.08 0.07 81 1015.4